Capitol Logistics 779


ZMUB
Chinggis Khaan International Airport
Ulan Bator, MN
RKSI
Incheon International Airport
Seoul, KR

Activity Log

Date Flight Route Aircraft Duration
No Flights Yet

Route Details

Aircraft Information
Primary: Boeing 767-300BDSF
Backup: Not Available
Route Data
Distance: 1066nm
Sched. Duration: 2h 35m
Avg. Duration: 0h 00m (-235m)
Times Flown: 0
Recm'd Route: SND A575 PIDOX V1 PAMDA A326 DONVO G597 GONAV GONAV2M
Planned Altitude: 35,000ft
Origin Wx: ZMUB 160830Z 17003MPS 9999 SCT100 M22/M28 Q1025 NOSIG RMK QFE660.3 54 MOP
Dest. Wx: RKSI 160800Z 31012KT 9999 FEW030 M04/M13 Q1027 NOSIG
Notes:

Financial History
Total Freight: 0lbs
Average Load: 0lbs/flt
Fuel Used: 0lbs
Avg. Fuel Used: 0lbs/flt
Fuel Expense: $0
Avg. Fuel Expense: $0
Avg. Fuel Cost: $0/lbs
Total Gross Income: $0
Pilot Pay: $0
Total Expenses: $0
Total Revenue: $0
Average Revenue: $0